Dewpoint
66 68 70 71 72 72 72 72 72 72 72 71 69 70 71 70 67 66 67 67 66 66 67 67 68 67 66 68 68 67 68 68 68 68 68 68 67 67 68 68 68 68 67
66 69 69 71 72 72 72 72 71 72 72 71 69 70 69 70 67 67 66 66 67 66 67 68 69 69 67 67 68 68 68 66 66 66 66 66 66 67 67 67 67 67 65
65 69 69 70 71 72 72 71 71 72 71 71 71 71 70 70 68 66 67 67 67 67 67 68 68 69 67 66 67 67 67 66 64 64 65 64 64 64 65 65 65 66 65
65 68 69 69 70 71 72 70 70 70 71 70 70 70 70 70 69 68 67 66 68 69 68 69 69 69 66 65 65 67 67 65 62 62 63 62 61 62 62 63 63 63 63
65 67 69 69 69 69 70 71 71 70 70 70 70 70 70 70 70 69 68 67 67 69 68 69 69 68 66 65 66 66 66 64 60 60 60 60 62 63 62 61 63 63 62
63 66 69 70 68 68 69 69 70 71 70 70 70 70 70 70 68 69 69 68 68 69 68 68 69 68 66 65 66 66 65 63 60 59 60 63 62 63 64 64 63 62 62
62 64 66 69 69 68 69 69 69 69 69 70 70 69 70 69 69 69 69 69 69 69 68 68 68 68 67 66 65 64 64 62 60 60 58 62 63 63 63 63 62 62 62
49 58 63 66 67 69 68 69 69 68 68 69 69 69 70 69 69 69 69 68 69 69 68 68 67 67 66 65 64 64 64 62 60 59 58 62 64 63 63 63 62 62 62
45 45 44 61 65 67 68 68 68 68 69 69 68 68 69 69 69 69 69 69 69 69 69 69 68 67 65 64 65 66 65 63 60 58 60 63 64 63 63 63 62 62 62
40 43 40 46 60 65 67 67 68 68 68 67 67 68 68 68 68 69 69 69 69 69 69 68 69 68 67 66 67 66 66 64 60 58 59 63 65 63 63 63 62 62 62
37 39 36 41 42 58 65 67 67 67 68 68 68 68 68 67 67 67 68 68 68 68 69 68 68 68 68 67 67 67 66 65 62 60 58 62 64 62 63 63 62 62 62
31 30 35 36 40 43 61 64 66 67 67 67 66 66 65 65 66 66 67 67 67 68 68 69 68 67 67 67 67 66 66 65 63 60 58 63 64 63 63 63 63 62 62
29 32 35 36 37 40 47 61 64 66 66 66 65 64 64 64 64 64 64 66 66 67 67 68 68 67 67 66 65 65 65 65 64 61 59 62 65 63 63 63 63 63 62
31 33 36 38 38 40 42 52 62 64 64 65 63 63 62 64 65 66 65 65 66 66 66 66 67 66 66 66 65 63 64 64 63 61 59 62 65 64 62 62 63 63 63
34 35 36 38 40 40 41 44 58 62 63 64 64 61 61 62 64 65 65 65 65 66 66 65 65 65 65 64 63 62 61 62 61 60 59 61 64 64 64 63 63 64 63
44 45 42 42 39 40 41 41 48 62 63 63 64 62 60 60 62 62 63 63 63 63 65 65 64 64 64 64 63 62 60 59 60 58 57 59 63 64 65 64 64 65 65
49 49 50 50 50 45 41 41 43 55 62 60 63 63 61 60 60 61 61 61 61 60 61 61 63 64 64 64 64 64 64 63 56 57 55 58 61 62 63 64 64 65 66
48 49 49 50 51 52 50 42 41 49 59 59 61 63 63 60 60 60 59 60 60 59 59 59 60 61 62 62 62 62 63 63 63 59 56 54 58 60 61 63 64 64 65
47 48 48 49 51 52 53 48 41 42 54 61 61 63 63 62 61 59 58 58 57 57 58 58 59 60 60 60 61 62 62 62 62 62 59 55 53 58 59 60 62 63 64
46 47 48 48 49 51 53 51 44 42 47 58 62 62 62 62 61 59 58 58 57 56 56 57 58 60 59 59 60 60 62 62 62 62 60 57 54 52 54 56 58 60 62
45 45 46 47 49 49 50 51 51 46 43 51 59 59 60 61 60 59 58 58 58 57 57 57 57 57 58 60 59 59 60 61 62 62 61 60 58 55 51 50 53 55 56
44 45 46 47 48 49 49 50 53 52 52 52 56 58 59 59 58 58 57 57 57 58 58 58 57 57 57 58 57 57 54 53 59 60 61 61 59 57 53 49 49 53 54
43 44 45 47 47 48 49 50 52 53 53 53 54 56 55 54 53 53 53 54 54 54 54 55 57 58 57 57 58 56 52 50 52 58 60 60 60 59 56 54 51 49 50
42 44 44 44 44 44 46 48 50 50 50 51 52 51 52 51 50 50 51 51 52 52 51 52 52 52 54 55 56 57 58 56 52 50 56 58 59 58 57 55 53 50 51
42 42 43 42 41 42 43 44 47 47 48 48 48 48 48 48 47 47 48 48 49 49 49 49 49 49 50 51 55 55 55 56 57 54 52 52 57 58 57 57 55 53 51
42 41 41 39 38 38 39 41 43 43 44 44 44 43 43 44 44 44 45 46 47 47 47 48 48 47 47 47 48 49 54 53 52 54 53 53 53 54 57 57 56 54 53
Wind_Speed
11 2 4 9 10 8 4 2 7 8 11 11 9 8 8 7 7 8 8 8 7 8 7 8 8 9 10 10 10 11 14 14 12 13 14 14 13 14 15 14 15 14 15
10 4 6 7 9 8 4 2 6 8 9 10 9 10 8 8 6 6 7 6 5 6 6 6 8 9 12 11 12 12 12 11 9 10 12 12 11 12 12 14 14 13 13
12 12 2 6 8 8 5 3 5 7 8 8 7 8 8 7 9 7 5 4 4 4 6 6 10 12 12 11 11 9 7 5 6 7 9 7 10 9 9 10 10 10 10
12 11 9 9 7 7 6 4 6 7 8 7 5 5 5 7 8 7 6 5 3 4 8 8 12 11 11 11 9 8 5 3 2 4 3 4 10 8 8 8 8 8 8
13 13 15 11 7 6 6 5 5 6 7 7 8 8 7 7 6 8 7 5 2 0 5 12 12 12 12 10 8 7 5 4 3 2 4 10 10 8 7 7 8 9 8
12 14 15 9 4 5 5 5 5 5 6 6 5 7 7 6 6 7 7 6 5 4 5 10 12 10 12 11 8 6 5 5 2 2 4 14 11 9 7 8 8 8 8
11 11 13 16 5 3 5 6 7 7 7 6 6 5 6 6 7 6 8 7 6 7 8 10 11 11 11 11 9 8 6 5 4 2 3 14 11 10 8 7 7 6 6
11 13 12 10 14 7 3 4 7 8 9 9 8 7 7 7 8 7 7 8 9 10 11 13 12 12 11 11 11 9 7 6 5 4 4 12 13 11 9 8 8 7 6
8 10 12 11 11 12 5 6 7 8 9 10 11 10 9 9 9 9 8 8 9 11 13 14 13 13 12 12 11 10 9 8 7 6 1 12 15 12 11 9 8 8 7
10 9 11 10 10 9 7 7 8 9 11 11 11 11 11 11 11 11 11 11 12 13 13 14 14 15 15 14 12 11 10 10 9 8 6 11 15 12 11 10 10 9 9
10 10 12 11 12 11 8 6 5 9 9 9 10 11 10 10 11 13 14 15 16 16 16 16 15 15 15 15 14 13 12 11 11 10 10 13 17 14 13 12 11 10 10
11 13 9 10 11 12 10 9 6 5 8 10 11 12 12 13 14 14 17 19 19 18 17 17 16 16 15 11 12 13 11 12 13 14 11 15 19 16 15 14 13 13 12
11 10 12 10 10 10 11 11 10 9 8 8 11 7 8 10 10 11 11 13 14 18 14 16 15 13 13 13 12 12 13 13 13 14 12 18 21 19 17 16 16 15 14
13 13 13 13 11 10 10 11 12 10 11 9 10 9 9 8 6 6 4 2 6 9 12 12 12 13 15 16 16 14 16 15 14 14 15 21 24 22 20 20 19 18 18
13 14 15 12 10 12 11 11 12 13 12 11 11 13 12 13 12 9 7 5 4 7 12 14 13 14 14 15 16 17 17 18 18 16 15 21 26 24 22 21 22 21 21
16 20 17 19 15 14 12 12 13 14 13 12 11 12 15 15 14 11 10 9 8 8 7 12 14 14 15 14 15 16 17 18 18 19 16 17 27 24 23 23 23 24 24
15 18 20 19 20 20 17 15 13 14 14 13 13 13 15 16 16 13 11 10 8 6 5 8 9 11 13 13 16 16 17 16 14 21 19 16 20 27 26 25 24 24 23
19 19 18 19 19 19 20 18 14 14 15 14 15 14 13 15 18 16 13 12 9 8 8 7 7 9 11 12 15 16 14 13 17 16 13 11 15 17 24 27 26 26 25
16 19 20 19 19 20 19 17 17 16 14 16 15 14 16 12 12 15 15 12 11 9 9 9 10 9 12 13 13 14 14 14 16 16 19 17 17 17 17 21 28 27 27
15 16 16 16 17 20 17 16 15 15 16 14 15 16 17 13 12 9 6 4 6 5 6 6 9 10 14 16 16 16 15 16 14 16 19 18 17 17 15 18 19 23 30
15 17 18 18 17 16 17 17 16 14 15 14 15 18 20 9 9 7 2 0 5 4 6 8 7 11 13 12 14 15 16 18 19 17 15 18 20 21 21 20 20 20 20
15 16 17 16 17 16 14 16 11 13 11 11 7 10 14 11 9 8 8 11 12 11 12 12 11 12 11 8 14 14 22 20 16 19 20 20 22 21 22 22 21 20 19
14 15 17 16 16 16 18 15 13 9 12 10 13 12 14 15 13 13 14 12 13 12 9 11 12 13 17 16 15 15 11 17 8 10 19 21 23 21 23 24 26 28 26
13 13 13 14 16 15 17 15 12 9 8 8 8 13 10 14 15 15 15 15 12 11 11 11 11 11 15 21 19 17 23 23 21 24 13 17 21 24 24 23 24 25 25
10 11 12 14 16 17 17 18 15 14 10 10 8 11 14 13 15 14 16 16 13 10 10 10 10 9 13 16 18 23 23 22 23 27 30 19 15 18 23 23 24 24 24
9 11 10 13 14 15 16 16 15 14 14 12 11 9 12 9 10 10 10 10 9 9 10 9 9 10 9 14 17 18 18 21 23 22 26 28 26 21 19 22 23 23 22
Wind_Direction
357 197 174 142 136 137 145 157 172 161 149 145 143 131 126 119 112 117 126 128 130 131 129 127 127 116 98 83 77 113 109 92 90 89 78 71 71 72 76 84 82 85 85
342 288 193 154 141 146 143 113 150 159 160 163 159 149 156 144 125 127 128 140 149 151 153 157 150 135 110 98 95 80 90 100 104 103 98 84 66 69 70 72 77 81 83
5 16 276 187 162 146 149 136 153 158 172 180 169 171 168 154 146 150 146 152 177 208 186 136 144 132 122 113 99 108 105 105 120 120 105 88 83 70 74 72 77 80 82
2 5 337 209 189 153 158 161 163 167 174 183 186 185 182 179 167 162 172 194 223 290 228 168 144 139 129 124 135 132 134 151 141 150 187 156 109 93 85 86 84 84 87
12 8 352 182 186 176 169 176 180 180 186 195 196 185 186 194 189 178 188 188 213 79 106 161 147 138 138 138 150 161 165 196 212 41 358 140 119 117 113 105 92 102 99
20 4 17 10 200 197 191 198 199 209 208 202 179 177 184 193 201 205 193 189 192 185 162 163 152 152 150 148 167 175 190 227 262 344 126 146 128 132 117 119 121 120 119
20 16 26 16 357 247 222 214 211 216 226 225 219 214 211 216 212 205 194 193 198 197 192 179 169 171 167 166 176 185 204 229 239 254 170 138 142 143 144 142 136 131 131
29 23 22 22 14 330 294 249 242 232 221 220 225 231 232 223 223 221 202 203 200 199 191 182 180 181 181 180 181 188 208 234 248 279 217 153 156 156 159 160 157 153 149
20 25 13 11 16 18 327 293 260 248 245 236 231 235 237 238 238 232 219 215 209 210 196 191 187 189 190 191 190 192 208 233 250 267 240 168 169 170 170 172 174 172 167
3 16 7 3 1 355 348 343 264 257 249 253 257 256 251 248 247 240 230 222 215 215 211 202 196 195 195 199 200 201 215 231 247 251 258 203 178 179 180 185 187 186 182
357 356 350 347 342 337 327 323 303 255 256 252 253 253 253 249 247 238 233 228 223 217 212 206 203 202 202 206 210 214 215 226 242 249 251 215 186 188 188 190 197 200 196
335 330 326 325 326 327 318 315 312 254 255 251 242 239 241 241 240 238 234 232 226 221 214 209 207 207 207 212 221 224 224 226 237 247 238 213 189 197 196 196 201 205 207
315 317 313 302 302 311 313 305 302 298 278 248 245 251 265 249 253 258 254 242 225 224 217 213 207 206 203 210 220 222 225 229 236 247 245 215 200 203 203 202 206 209 212
323 322 326 320 297 295 300 305 287 288 293 286 244 223 238 260 236 242 238 273 229 225 213 210 208 210 208 210 217 219 222 222 229 239 240 219 206 203 208 207 210 213 213
339 330 323 321 308 291 290 292 288 271 278 279 283 251 231 234 242 239 243 220 207 219 224 213 211 214 219 219 221 224 221 223 224 230 233 220 212 206 208 211 213 216 216
7 359 345 338 319 301 283 271 279 267 264 280 276 274 240 229 232 234 238 227 225 225 223 217 212 214 214 223 233 232 227 221 225 226 231 219 215 210 211 213 217 218 220
16 6 2 355 346 332 311 282 278 270 255 266 275 270 260 226 222 216 223 224 215 222 228 243 238 233 233 228 233 234 242 242 223 227 225 211 211 215 214 217 220 223 224
12 4 350 348 342 338 328 299 277 279 264 249 263 262 267 229 221 214 213 224 231 238 233 237 249 262 259 247 241 243 247 240 237 235 239 233 219 213 220 218 218 222 225
8 357 343 341 339 339 330 313 291 279 275 255 252 257 259 267 236 217 207 217 219 230 235 238 241 237 260 270 266 270 267 260 244 235 234 238 224 217 216 220 222 223 224
1 351 339 338 335 338 335 332 313 293 281 267 252 259 253 268 292 275 245 255 240 224 252 256 257 252 253 262 270 270 265 256 243 232 227 227 226 224 222 219 222 227 226
359 349 347 340 341 345 342 333 329 313 283 279 260 253 254 260 282 264 287 84 36 354 311 298 289 275 271 255 265 268 265 253 246 241 234 231 234 233 230 231 227 223 225
351 348 341 339 341 346 341 323 302 299 301 283 303 31 36 43 52 62 51 43 26 8 354 340 322 305 282 249 262 277 284 275 242 234 232 231 234 235 232 224 224 222 217
354 347 343 344 345 357 349 332 328 339 358 5 357 56 38 45 31 35 53 44 33 27 358 341 334 310 289 280 246 251 274 264 273 225 232 232 233 231 235 237 233 233 227
346 342 353 351 355 7 1 351 9 29 21 9 34 43 42 46 35 33 32 52 36 22 21 11 354 338 321 288 278 248 251 258 269 279 240 232 231 234 235 235 234 230 224
348 350 358 1 5 6 12 10 10 39 24 8 17 55 58 39 45 36 29 31 38 11 5 360 353 17 6 339 299 269 258 255 250 254 267 254 230 232 234 235 236 234 230
357 359 5 9 4 4 20 13 20 29 32 28 23 37 56 63 43 36 33 27 22 21 358 344 352 358 22 8 344 354 287 257 263 250 253 254 248 245 231 231 233 228 227